TimeEST,TemperatureF,Dew PointF,Humidity,Sea Level PressureIn,VisibilityMPH,Wind Direction,Wind SpeedMPH,Gust SpeedMPH,PrecipitationIn,Events,Conditions,WindDirDegrees,DateUTC
12:15 AM,41.0,26.6,57,30.41,10.0,Calm,Calm,-,N/A,,Clear,0,2012-11-18 05:15:00
12:35 AM,39.2,26.6,61,30.40,10.0,ENE,3.5,-,N/A,,Clear,70,2012-11-18 05:35:00
12:55 AM,39.2,26.6,61,30.41,10.0,East,3.5,-,N/A,,Clear,80,2012-11-18 05:55:00
1:15 AM,39.2,26.6,61,30.40,10.0,East,4.6,-,N/A,,Clear,90,2012-11-18 06:15:00
1:35 AM,37.4,26.6,65,30.40,10.0,East,3.5,-,N/A,,Clear,80,2012-11-18 06:35:00
1:55 AM,33.8,26.6,75,30.40,10.0,Calm,Calm,-,N/A,,Clear,0,2012-11-18 06:55:00
2:15 AM,33.8,28.4,81,30.41,10.0,NNE,3.5,-,N/A,,Clear,30,2012-11-18 07:15:00
2:35 AM,33.8,26.6,75,30.41,10.0,ENE,5.8,-,N/A,,Clear,60,2012-11-18 07:35:00
2:55 AM,37.4,26.6,65,30.41,10.0,NE,3.5,-,N/A,,Clear,50,2012-11-18 07:55:00
3:15 AM,35.6,26.6,70,30.41,10.0,NE,3.5,-,N/A,,Clear,50,2012-11-18 08:15:00
3:35 AM,35.6,26.6,70,30.41,10.0,ENE,3.5,-,N/A,,Clear,60,2012-11-18 08:35:00
3:55 AM,35.6,26.6,70,30.40,10.0,ENE,5.8,-,N/A,,Clear,70,2012-11-18 08:55:00
4:15 AM,33.8,26.6,75,30.41,10.0,East,4.6,-,N/A,,Clear,80,2012-11-18 09:15:00
4:35 AM,32.0,26.6,80,30.41,10.0,East,5.8,-,N/A,,Clear,90,2012-11-18 09:35:00
4:55 AM,33.8,26.6,75,30.41,10.0,East,4.6,-,N/A,,Clear,100,2012-11-18 09:55:00
5:15 AM,32.0,26.6,80,30.41,10.0,ESE,5.8,-,N/A,,Clear,110,2012-11-18 10:15:00
5:35 AM,32.0,26.6,80,30.42,10.0,ESE,5.8,-,N/A,,Clear,120,2012-11-18 10:35:00
5:55 AM,32.0,26.6,80,30.42,10.0,ESE,5.8,-,N/A,,Clear,110,2012-11-18 10:55:00
6:15 AM,32.0,26.6,80,30.41,10.0,East,5.8,-,N/A,,Clear,100,2012-11-18 11:15:00
6:35 AM,32.0,26.6,80,30.41,10.0,ESE,5.8,-,N/A,,Clear,110,2012-11-18 11:35:00
6:55 AM,35.6,26.6,70,30.41,10.0,SE,4.6,-,N/A,,Clear,130,2012-11-18 11:55:00
7:15 AM,32.0,26.6,80,30.42,10.0,ESE,4.6,-,N/A,,Clear,120,2012-11-18 12:15:00
7:35 AM,33.8,26.6,75,30.42,10.0,SE,3.5,-,N/A,,Clear,130,2012-11-18 12:35:00
7:55 AM,35.6,26.6,70,30.42,10.0,East,3.5,-,N/A,,Clear,90,2012-11-18 12:55:00
8:15 AM,35.6,26.6,70,30.42,10.0,East,4.6,-,N/A,,Clear,90,2012-11-18 13:15:00
8:35 AM,35.6,28.4,75,30.42,10.0,East,4.6,-,N/A,,Clear,100,2012-11-18 13:35:00
8:55 AM,39.2,30.2,70,30.42,10.0,Calm,Calm,-,N/A,,Clear,0,2012-11-18 13:55:00
9:15 AM,41.0,30.2,65,30.43,10.0,Calm,Calm,-,N/A,,Clear,0,2012-11-18 14:15:00
9:35 AM,44.6,32.0,61,30.43,10.0,East,3.5,-,N/A,,Clear,100,2012-11-18 14:35:00
10:15 AM,48.2,32.0,54,30.42,10.0,Calm,Calm,-,N/A,,Clear,0,2012-11-18 15:15:00
10:35 AM,51.8,32.0,47,30.42,10.0,Calm,Calm,-,N/A,,Clear,0,2012-11-18 15:35:00
10:55 AM,55.4,26.6,33,30.42,10.0,Calm,Calm,-,N/A,,Clear,0,2012-11-18 15:55:00
11:15 AM,55.4,23.0,29,30.42,10.0,SSE,3.5,-,N/A,,Clear,160,2012-11-18 16:15:00
11:35 AM,57.2,24.8,29,30.42,10.0,Calm,Calm,-,N/A,,Clear,0,2012-11-18 16:35:00
11:55 AM,57.2,24.8,29,30.41,10.0,SW,3.5,-,N/A,,Clear,220,2012-11-18 16:55:00
12:15 PM,59.0,19.4,22,30.40,10.0,Calm,Calm,-,N/A,,Clear,0,2012-11-18 17:15:00
12:35 PM,60.8,21.2,22,30.39,10.0,West,4.6,-,N/A,,Clear,270,2012-11-18 17:35:00
1:15 PM,60.8,17.6,19,30.37,10.0,Calm,Calm,-,N/A,,Clear,0,2012-11-18 18:15:00
1:35 PM,60.8,17.6,19,30.37,10.0,NW,4.6,-,N/A,,Clear,310,2012-11-18 18:35:00
2:15 PM,60.8,17.6,19,30.36,10.0,Calm,Calm,-,N/A,,Clear,0,2012-11-18 19:15:00
2:35 PM,60.8,17.6,19,30.36,10.0,Calm,Calm,-,N/A,,Clear,0,2012-11-18 19:35:00
2:55 PM,60.8,19.4,20,30.35,10.0,NNW,4.6,-,N/A,,Clear,340,2012-11-18 19:55:00
3:15 PM,62.6,21.2,20,30.35,10.0,NNE,4.6,-,N/A,,Clear,20,2012-11-18 20:15:00
3:35 PM,60.8,23.0,23,30.35,10.0,NNE,3.5,-,N/A,,Clear,20,2012-11-18 20:35:00
3:55 PM,60.8,23.0,23,30.35,10.0,NE,5.8,-,N/A,,Clear,50,2012-11-18 20:55:00
4:15 PM,60.8,23.0,23,30.34,10.0,NE,5.8,-,N/A,,Clear,40,2012-11-18 21:15:00
4:35 PM,59.0,23.0,25,30.34,10.0,NNE,3.5,-,N/A,,Clear,30,2012-11-18 21:35:00
4:55 PM,59.0,23.0,25,30.34,10.0,NNE,3.5,-,N/A,,Clear,30,2012-11-18 21:55:00
5:15 PM,57.2,24.8,29,30.35,10.0,Calm,Calm,-,N/A,,Clear,0,2012-11-18 22:15:00
5:35 PM,57.2,23.0,27,30.35,10.0,Calm,Calm,-,N/A,,Clear,0,2012-11-18 22:35:00
5:55 PM,55.4,23.0,29,30.35,10.0,Calm,Calm,-,N/A,,Clear,0,2012-11-18 22:55:00
6:15 PM,55.4,23.0,29,30.35,10.0,NNE,3.5,-,N/A,,Clear,30,2012-11-18 23:15:00
6:35 PM,53.6,23.0,30,30.36,10.0,NE,3.5,-,N/A,,Clear,40,2012-11-18 23:35:00
6:55 PM,53.6,23.0,30,30.36,10.0,Calm,Calm,-,N/A,,Clear,0,2012-11-18 23:55:00
7:15 PM,51.8,23.0,33,30.37,10.0,Calm,Calm,-,N/A,,Clear,0,2012-11-19 00:15:00
7:35 PM,50.0,23.0,35,30.37,10.0,Calm,Calm,-,N/A,,Clear,0,2012-11-19 00:35:00
7:55 PM,50.0,23.0,35,30.37,10.0,Calm,Calm,-,N/A,,Clear,0,2012-11-19 00:55:00
8:15 PM,46.4,24.8,43,30.36,10.0,Calm,Calm,-,N/A,,Clear,0,2012-11-19 01:15:00
8:35 PM,48.2,24.8,40,30.37,10.0,Calm,Calm,-,N/A,,Clear,0,2012-11-19 01:35:00
9:15 PM,44.6,26.6,49,30.37,10.0,Calm,Calm,-,N/A,,Clear,0,2012-11-19 02:15:00
9:35 PM,46.4,26.6,46,30.37,10.0,Calm,Calm,-,N/A,,Clear,0,2012-11-19 02:35:00
9:55 PM,44.6,24.8,46,30.36,10.0,East,3.5,-,N/A,,Clear,90,2012-11-19 02:55:00
10:15 PM,44.6,24.8,46,30.36,10.0,Calm,Calm,-,N/A,,Clear,0,2012-11-19 03:15:00
10:35 PM,41.0,26.6,57,30.36,10.0,Calm,Calm,-,N/A,,Clear,0,2012-11-19 03:35:00
10:55 PM,41.0,26.6,57,30.36,10.0,Calm,Calm,-,N/A,,Clear,0,2012-11-19 03:55:00
11:15 PM,39.2,26.6,61,30.36,10.0,Calm,Calm,-,N/A,,Clear,0,2012-11-19 04:15:00
11:35 PM,39.2,26.6,61,30.35,10.0,ESE,4.6,-,N/A,,Clear,110,2012-11-19 04:35:00
11:55 PM,39.2,28.4,65,30.35,10.0,ESE,4.6,-,N/A,,Clear,110,2012-11-19 04:55:00